Hourly Weather Roundup
Issued by NWS Central Illinois

Home | Current Version | Previous Version | Text Only | Print | Product List | Glossary On
Versions: 1 2 3 4 5 6 7 8 9 10 11 12 13 14 15 16 17 18 19 20 21 22 23 24 25 26 27 28 29 30 31 32 33 34 35 36 37 38 39 40 41 42 43 44 45 46 47 48 49 50
000
NZUS43 KILX 251310
HWRILX

AREA WEATHER ROUNDUP
NATIONAL WEATHER SERVICE, LINCOLN IL
800 AM CDT SAT MAR 25 2017


CITY           SKY/WX    TMP DP  RH WIND       PRES   REMARKS
BLOOMINGTON    CLOUDY    46  46 100 E18       29.90F FOG
CHAMPAIGN      CLOUDY    63  54  72 SE16      29.90S
DECATUR        CLOUDY    62  54  74 S18G24    29.87R
EFFINGHAM      CLOUDY    62  56  82 SE12G17   29.94R
FLORA          CLOUDY    60  54  80 S15       29.95R
GALESBURG      RAIN      45  45 100 NE15      29.86S
JACKSONVILLE   CLOUDY    58  56  94 S9        29.85R
LACON          DRIZZLE   44  44  99 E16       29.91F
LAWRENCEVILLE  CLOUDY    64  53  67 S17G26    29.97S
LITCHFIELD     CLOUDY    55  55  97 S14       29.88R
$$


CITY           SKY/WX    TMP DP  RH WIND       PRES   REMARKS
LINCOLN        CLOUDY    56  55  97 E8G16     29.86R FOG
MACOMB         CLOUDY    47  47 100 NE14      29.87R FOG
MATTOON        CLOUDY    63  55  75 S16G23    29.90R
MT CARMEL AP   CLOUDY    64  51  64 S17       29.97S
OLNEY-NOBLE AP CLOUDY    61  55  82 S15       29.95R
PARIS          CLOUDY    63  55  74 SE22      29.94F
PEORIA         CLOUDY    48  47  96 E18       29.88S FOG
PONTIAC        LGT RAIN  45  45  99 NE20      29.94F
RANTOUL        CLOUDY    57  54  90 NE9       29.91F
SPRINGFIELD    CLOUDY    61  56  83 S15G24    29.86R
TAYLORVILLE    CLOUDY    59  55  88 S17G23    29.87R
$$

...REGIONAL REPORTS...


CITY           SKY/WX    TMP DP  RH WIND       PRES   REMARKS
CHICAGO O`HARE DRIZZLE   42  39  89 NE14      30.05S WCI  35
KANKAKEE       CLOUDY    44  43  97 NE9       30.00S FOG
MOLINE         LGT RAIN  43  40  89 NE16      29.91F FOG
MOUNT STERLING HVY RAIN  56  56  99 SE5       29.83R
MOUNT VERNON   LGT RAIN  58  53  84 S8        29.95R
PITTSFIELD     CLOUDY    58  57  97 S7        29.85R
QUINCY         LGT RAIN  57  56  96 S6        29.83R FOG
ROCKFORD       CLOUDY    40  37  89 NE18G26   30.05F WCI  31
$$


CITY           SKY/WX    TMP DP  RH WIND       PRES   REMARKS
BURLINGTON     CLOUDY    46  32  58 NE13      29.86R HAZE
CEDAR RAPIDS   LGT RAIN  39  39 100 NE21      29.93S FOG     WCI  29
DES MOINES     LGT RAIN  41  39  93 N16G23    29.94S FOG     WCI  33
KIRKSVILLE     RAIN      54  53  97 NE10      29.81R VSB 1
OTTUMWA        RAIN      44  43  96 NE18G25   29.88R FOG
ST LOUIS       CLOUDY    58  53  84 S13       29.85R
$$


CITY           SKY/WX    TMP DP  RH WIND       PRES   REMARKS
TERRE HAUTE    CLOUDY    64  52  64 S18G25    29.97S
EVANSVILLE     CLOUDY    62  52  69 S12       30.03R
INDIANAPOLIS   CLOUDY    61  51  70 SE9       30.03S
LAFAYETTE      PTSUNNY   62  53  72 SE10      29.98S
MADISON        CLOUDY    36  34  92 NE14      30.11R WCI  27
MILWAUKEE      CLOUDY    38  36  92 NE16G22   30.14R WCI  29
$$






USA.gov is the U.S. government's official web portal to all federal, state and local government web resources and services.